Home > Weather > Mosjøen > Past weeks

Flag for Norway Past Weather in Mosjøen, Norway — Yesterday and Last 2 Weeks

Now
66 °F

Sunny.


Feels Like: 66 °F
Forecast: 54 / 71 °F
Wind: 3 mph from North

Location: Mosjoen Kjaerstad

Current Time: May 30, 2016 at 10:56:17 AM

Latest Report: May 30, 2016 at 10:20 AM


Visibility: 10 mi

Pressure: 30.21 "Hg

Humidity: 49%

Dew Point: 46 °F

Location of MosjøenLocation

Past Weather in Mosjøen — Graph

°F

Mosjøen Temperature Yesterday

Maximum temperature yesterday: 73 °F (at 4:20 PM)
Minimum temperature yesterday: 59 °F (at 10:50 PM)
Average temperature yesterday: 69 °F

High & Low Weather Summary for the Past Weeks

 TemperatureHumidityPressure
High73 °F (May 29, 4:20 PM)94% (May 23, 4:50 AM)30.33 "Hg (May 23, 4:50 AM)
Low28 °F (May 19, 4:50 AM)18% (May 28, 1:50 PM)29.65 "Hg (May 16, 9:50 PM)
Average49 °F64%29.99 "Hg
* Reported May 15 3:50 PM — May 30 9:20 AM, Mosjøen, Weather by CustomWeather, © 2016

Note: Actual official high and low records may vary slightly from our data, if they occured in-between our weather recording intervals... More about our weather records

Advertising

Mosjøen Weather History for the Previous 24 Hours

Scroll right to see more
 ConditionsComfort  
Time TempWeatherWind HumidityBarometerVisibility
9:20 AM
Mon, May 30
61 °FPassing clouds.2 mph59%30.21 "HgN/A
8:50 AM59 °FPassing clouds.1 mph63%30.21 "HgN/A
7:50 AM55 °FSunny.2 mph67%30.21 "Hg10 mi
6:50 AM52 °FSunny.3 mph77%30.21 "Hg10 mi
5:50 AM50 °FSunny.3 mph82%30.21 "Hg10 mi
5:20 AM50 °FSunny.3 mph76%30.21 "Hg10 mi
4:50 AM50 °FSunny.3 mph82%30.21 "Hg10 mi
10:50 PM
Sun, May 29
59 °FSunny.No wind59%30.21 "Hg10 mi
10:20 PM61 °FSunny.3 mph59%30.21 "Hg10 mi
9:50 PM63 °FSunny.3 mph52%30.21 "Hg10 mi
9:20 PM63 °FSunny.3 mph56%30.21 "Hg10 mi
8:50 PM64 °FSunny.3 mph49%30.21 "Hg10 mi
8:20 PM68 °FSunny.3 mph43%30.21 "Hg10 mi
7:50 PM70 °FSunny.8 mph38%30.21 "Hg10 mi
7:20 PM72 °FSunny.8 mph36%30.21 "Hg10 mi
6:50 PM72 °FSunny.6 mph36%30.21 "Hg10 mi
6:20 PM72 °FSunny.6 mph36%30.21 "Hg10 mi
5:50 PM72 °FSunny.8 mph36%30.21 "Hg10 mi
5:20 PM72 °FSunny.6 mph36%30.21 "Hg10 mi
4:50 PM73 °FSunny.6 mph33%30.21 "Hg10 mi
4:20 PM73 °FSunny.7 mph33%30.21 "Hg10 mi
3:50 PM72 °FSunny.7 mph36%30.21 "Hg10 mi
3:20 PM72 °FSunny.7 mph36%30.21 "Hg10 mi
2:50 PM72 °FSunny.7 mph36%30.24 "Hg10 mi
2:20 PM72 °FSunny.3 mph36%30.24 "Hg10 mi
1:50 PM72 °FSunny.3 mph36%30.24 "Hg10 mi
1:20 PM72 °FSunny.3 mph36%30.24 "Hg10 mi
12:50 PM70 °FSunny.9 mph38%30.24 "Hg10 mi
12:20 PM70 °FSunny.9 mph38%30.24 "Hg10 mi
Weather by CustomWeather, © 2016

See weather overviewHow to use our weather pages